Location: Martley
(52.2333°N, 2.3667°W)
Time: 13:28:51
(UTC+00:00)

Cosmos 2180 Rocket - Pass Details

Date: 11 December 2019
Orbit: 955 x 1004 km, 82.9° (Epoch: 18 January)

Event Time Altitude Azimuth Distance (km) Brightness Sun altitude
Rises 06:15:53 0° 190° (S) 3,620 7.6 -16.0°
Reaches altitude 10° 06:18:22 10° 191° (S) 2,679 6.9 -15.6°
Maximum altitude 06:24:30 84° 279° (W) 971 4.4 -14.7°
Drops below altitude 10° 06:30:44 10° 9° (N) 2,716 6.7 -13.8°
Sets 06:33:16 0° 11° (N) 3,673 7.4 -13.5°
